Weather in Khotnezha

Russia / Saint-Petersburg and Leningrad Oblast     59°07′46″N   29°17′31″E
temp.,
°C
wind,
m/s
gust,
m/s
humid.,
%
clouds,
%
prec.,
mm/h
press.,
hPa
HPBL,
m
14 april, wed
wed1400:00+4nnw4865100 0.0 1020497
03:00+3nnw2860100 0.0 1020613
06:00+2nw3973100 0.1 1019388
09:00+3nw376695 0.1 1020464
12:00+8nw344587 0.0 10211164
15:00+9nw4443100 0.0 10221397
18:00+7nnw3447100 0.0 10221003
21:00+3nnw2774100 0.0 1024243
15 april, thu
thu1500:00+2n31078100 0.0 1025333
03:00+2ne3973100 0.0 1026301
06:00+1ne4117155 0.0 1028427
09:00+4ne595940 0.0 1028758
12:00+7ne69428 0.0 10291200
15:00+9ne68345 0.0 10281337
18:00+7ne594416 0.0 10281044
21:00+4ne5136074 0.0 1029558
16 april, fri
fri1600:00+2ne41270100 0.0 1029420
03:00+2ne4127851 0.0 1029410
06:00+1ene4137790 0.0 1029396
09:00+4ene51358100 0.0 1029583
12:00+8ene61041100 0.0 1029916
15:00+10ene5937100 0.0 10291079
18:00+10ene5943100 0.0 10291064
21:00+6ene4125898 0.0 1030471
17 april, sat
sat1700:00+5ene4126351 0.0 1031412
03:00+3ene4127186 0.0 1031328
06:00+2ene4127656 0.0 1032307
09:00+6e51057100 0.0 1032452
12:00+12e57375 0.0 10321033
15:00+14e573274 0.0 10311371
18:00+13e463952 0.0 10311363
21:00+7ene39626 0.0 1031164
18 april, sun
sun1800:00+5ene39725 0.0 1032172
03:00+4e267624 0.0 1032111
06:00+3e26797 0.0 1032111
09:00+8e37555 0.0 1032388
12:00+13ese45385 0.0 10321261
15:00+14ese35335 0.0 10311576
18:00+14ese35385 0.0 10301643
21:00+8ese23605 0.0 103145